Wind_Speed
22 21 22 22 22 21 20 20 21 19 18 18 17 15 16 17 16 15 15 14 13 13 13 12 12 11 9 9 10 11 11 10 10 9 9 8 8 7 7 7 7 8
22 21 22 22 22 21 19 20 21 20 19 19 18 17 18 17 16 15 15 14 13 13 12 11 11 10 9 10 11 11 11 10 10 9 9 8 8 8 8 8 9 10
22 21 22 22 22 22 21 21 20 19 18 18 18 19 19 17 15 16 16 14 13 13 11 10 10 10 9 10 11 12 11 10 10 9 8 8 8 8 9 10 11 13
22 22 22 22 22 23 23 22 20 18 17 16 17 18 17 15 16 16 14 12 12 12 10 9 9 10 9 10 12 12 10 9 8 8 8 8 8 9 10 12 13 14
22 22 23 23 23 23 22 21 19 17 16 15 16 16 14 15 16 15 13 12 11 10 8 8 10 9 9 11 12 11 10 9 8 8 8 8 9 11 13 14 15 16
22 23 24 25 25 24 21 20 18 17 16 15 15 15 14 16 17 15 13 12 10 7 7 9 10 9 9 11 12 11 9 9 9 9 8 9 11 13 14 16 16 17
24 24 25 25 25 25 22 20 18 16 16 16 15 15 15 17 17 15 12 10 8 7 8 9 9 9 10 12 12 11 10 9 9 9 9 10 13 14 15 15 16 16
25 24 25 25 25 25 23 21 19 17 16 16 16 16 17 18 17 13 11 8 7 9 10 8 7 8 11 13 12 11 10 10 10 10 10 12 15 15 16 16 15 15
25 24 25 26 26 26 25 23 20 18 17 16 17 19 19 18 16 13 10 8 8 10 10 8 7 9 12 13 12 11 11 11 11 11 12 13 15 15 15 16 15 15
25 24 25 26 27 29 28 24 21 19 18 18 20 21 21 19 16 12 9 8 10 12 11 10 9 10 13 13 12 12 12 12 11 12 13 14 15 15 15 16 16 15
24 23 25 26 28 29 27 22 20 20 20 21 23 22 21 19 15 11 9 9 10 11 12 12 10 10 14 14 14 13 12 12 13 14 15 15 16 16 16 16 16 16
25 24 25 26 27 27 24 22 21 21 22 24 25 23 22 19 14 11 11 10 11 12 13 12 11 12 15 15 14 14 14 15 16 17 17 17 17 17 17 17 16 15
26 26 26 27 26 24 22 22 22 21 23 26 26 24 22 18 13 12 12 11 13 14 13 13 12 13 15 16 15 16 17 17 18 17 17 17 17 17 17 16 14 13
28 27 27 27 25 23 22 22 21 21 23 26 27 25 21 16 13 15 15 13 14 15 13 13 14 15 16 17 17 18 18 18 18 18 18 18 18 17 16 14 13 14
29 28 28 27 25 24 23 22 21 22 24 27 28 25 20 16 14 16 18 16 16 17 14 14 16 17 17 18 18 18 18 18 19 19 18 18 18 17 15 15 15 15
30 29 28 27 25 24 23 21 22 24 26 28 28 24 21 18 16 18 19 19 18 18 16 16 17 18 19 19 19 19 19 20 20 19 18 18 17 17 17 17 17 16
28 28 26 25 24 24 22 21 23 27 29 29 27 24 20 19 19 19 20 20 19 17 17 20 20 20 21 20 19 19 20 20 19 18 18 18 17 18 18 18 18 18
27 27 26 25 25 24 22 23 27 29 30 28 26 23 21 20 20 20 20 20 19 18 20 22 22 22 22 20 20 20 20 20 20 19 18 18 18 18 18 18 18 19
28 28 27 26 26 24 24 26 28 30 29 27 26 24 22 21 21 20 21 21 20 20 23 24 23 23 23 21 21 21 20 20 20 19 18 18 19 19 19 19 19 19
27 28 27 26 25 25 26 28 29 30 29 28 27 25 24 24 23 22 23 23 22 23 25 24 23 24 23 22 22 21 20 19 19 19 20 20 20 20 19 20 19 19
27 27 26 26 25 26 29 31 31 31 30 29 29 26 24 23 23 23 23 21 22 23 24 24 23 23 23 23 23 22 20 19 19 20 20 20 19 19 18 17 18 19
27 27 26 26 26 29 32 32 32 31 30 29 28 26 24 22 22 22 21 21 22 23 22 22 23 24 24 24 24 23 21 20 21 20 20 20 19 18 18 18 18 19
26 27 27 27 28 32 33 32 32 31 29 28 26 24 22 21 21 21 21 23 25 22 19 21 23 25 25 26 27 25 22 21 22 21 21 21 20 20 20 20 19 17
27 27 28 29 30 32 32 32 31 29 27 25 24 22 21 20 19 18 20 24 25 20 19 23 26 26 27 28 28 25 22 20 20 21 21 20 19 19 20 19 18 17
28 29 29 29 30 31 31 31 29 27 25 24 22 20 20 19 18 18 21 23 23 20 22 25 27 27 29 29 28 25 22 19 17 19 20 20 20 20 20 19 18 17
29 29 30 30 30 30 30 30 29 26 25 22 19 18 18 18 18 19 21 23 22 22 24 26 27 28 29 29 27 25 23 20 18 19 20 21 21 20 19 18 17 16
Wind_Direction
184 187 195 202 205 203 197 195 194 190 190 197 203 203 202 198 188 185 191 196 202 210 215 212 206 202 192 181 177 172 167 168 171 171 170 167 162 156 147 144 141 136
184 189 198 200 198 193 186 187 188 188 194 202 207 206 199 193 188 188 194 201 207 215 220 211 197 195 194 185 174 166 164 168 170 169 168 161 151 146 142 140 138 134
187 191 198 194 191 187 183 187 191 193 200 205 206 202 195 193 194 196 199 205 213 219 217 205 193 193 192 180 171 167 169 174 174 171 164 155 148 144 143 139 136 134
189 191 195 192 188 187 186 188 190 194 198 199 199 196 195 199 200 202 205 209 215 217 209 196 191 192 187 175 170 170 174 175 172 168 160 152 147 142 138 135 132 131
188 189 192 192 188 186 186 186 188 193 193 190 192 194 197 200 200 205 212 212 213 212 202 194 191 191 184 171 168 171 175 175 170 164 157 149 144 140 137 134 131 128
188 189 191 191 189 188 187 186 189 193 188 186 191 194 197 198 199 207 213 215 217 208 199 202 195 188 178 167 168 174 176 175 168 158 153 149 146 143 140 137 135 132
190 192 191 190 189 189 189 188 190 189 185 189 196 199 199 198 200 206 211 216 218 197 190 201 196 181 171 168 172 177 174 172 166 157 153 149 145 144 142 140 139 136
191 193 193 191 187 185 187 191 192 188 188 195 195 191 191 193 197 204 210 217 213 188 178 185 187 173 168 172 176 177 173 170 165 160 156 153 150 147 145 142 140 137
192 194 192 190 187 187 190 193 191 187 192 197 188 183 188 193 195 200 209 213 198 180 168 168 178 173 171 177 178 176 176 173 167 163 160 157 153 149 146 143 140 137
193 195 190 187 190 193 194 194 188 186 193 192 184 185 191 193 192 194 200 200 186 170 159 166 182 182 177 178 178 179 181 176 167 160 155 152 149 146 145 143 140 138
191 193 186 186 193 196 195 192 189 190 190 185 185 190 190 186 185 185 183 182 174 160 159 172 182 177 174 176 178 181 182 173 162 156 154 152 150 148 147 146 144 143
188 189 182 184 193 195 192 192 194 194 187 183 186 190 188 184 182 176 172 168 159 157 167 176 174 168 172 178 178 177 174 168 163 162 160 156 153 153 154 154 152 150
185 185 182 187 193 191 191 195 197 194 187 183 186 190 190 186 173 161 162 162 161 168 179 177 170 171 175 177 177 175 174 171 167 165 162 158 159 161 161 156 150 144
186 186 186 191 193 192 197 200 196 193 188 184 186 188 189 181 160 155 163 166 169 179 186 179 173 175 175 175 177 178 177 172 168 165 163 163 167 166 159 147 140 137
190 192 193 195 196 198 203 201 195 193 189 186 185 185 183 172 157 161 167 170 179 186 185 178 176 176 176 178 182 180 177 172 169 167 167 168 169 162 150 143 142 141
194 195 194 195 196 198 202 199 193 191 189 186 183 181 177 168 163 168 169 175 188 193 184 176 178 178 178 183 186 181 177 174 170 168 169 170 166 156 150 148 147 143
196 196 194 194 194 197 200 197 191 188 187 185 183 181 174 166 168 173 173 180 192 193 184 180 180 180 181 185 186 181 179 176 169 168 171 170 163 156 153 153 149 145
198 199 197 195 194 195 197 193 188 185 183 183 185 182 172 167 173 176 177 185 192 188 185 185 183 184 185 186 183 180 179 174 169 171 173 169 162 158 157 155 151 148
197 199 198 196 194 193 193 191 187 183 182 182 184 180 172 171 176 178 181 190 195 191 190 189 188 188 188 185 180 177 174 172 171 172 171 164 160 159 158 156 155 153
194 196 195 194 192 190 190 190 186 184 183 182 180 176 175 177 179 181 187 195 200 198 195 194 193 192 190 184 178 172 168 169 170 168 165 161 161 164 165 164 163 160
192 193 191 191 189 186 187 188 187 187 185 183 180 178 180 182 182 185 191 197 202 202 199 197 195 193 189 183 175 166 163 167 168 166 165 164 166 170 169 168 169 167
193 193 189 187 184 182 184 187 188 188 186 186 184 181 181 181 181 187 191 196 204 206 202 199 195 191 187 180 172 165 165 168 168 166 168 169 169 170 169 172 176 175
190 190 187 183 180 181 185 187 188 188 187 187 187 183 180 179 184 192 194 199 205 204 199 197 193 187 183 178 171 169 170 171 170 170 172 172 171 174 177 180 179 176
187 188 186 183 182 185 188 188 187 186 184 184 185 183 179 179 187 194 195 201 207 203 196 196 191 184 181 178 175 174 172 171 174 177 176 173 175 181 185 184 179 175
187 188 188 188 188 189 190 188 187 185 182 181 182 182 179 179 186 191 193 202 209 204 196 195 191 184 181 179 178 175 169 165 174 182 178 175 181 187 187 186 183 177
189 190 190 192 192 189 187 187 187 184 183 182 181 179 179 180 184 187 192 201 208 201 194 195 194 186 181 180 178 173 165 161 172 186 185 182 188 192 187 186 185 177
Height
1506 1507 1508 1509 1511 1513 1515 1517 1518 1519 1521 1524 1525 1527 1528 1528 1529 1530 1532 1535 1537 1538 1539 1540 1540 1540 1539 1538 1538 1539 1540 1541 1542 1542 1542 1542 1542 1542 1542 1542 1541 1542
1503 1505 1506 1508 1510 1513 1515 1516 1517 1518 1520 1522 1523 1525 1526 1528 1529 1530 1532 1534 1536 1537 1537 1538 1538 1538 1537 1537 1537 1538 1540 1541 1541 1541 1541 1541 1541 1541 1541 1541 1541 1541
1502 1504 1506 1508 1510 1512 1514 1516 1517 1518 1520 1521 1523 1524 1525 1527 1530 1531 1533 1534 1535 1535 1536 1537 1536 1536 1536 1536 1536 1538 1539 1540 1540 1541 1541 1541 1541 1541 1541 1541 1541 1541
1501 1503 1505 1507 1509 1511 1514 1515 1516 1518 1520 1521 1523 1524 1525 1527 1529 1531 1532 1533 1533 1534 1535 1535 1535 1535 1534 1535 1536 1537 1538 1539 1540 1540 1540 1540 1540 1541 1541 1541 1541 1542
1500 1503 1504 1506 1508 1510 1512 1514 1515 1517 1519 1521 1522 1523 1524 1526 1528 1529 1531 1532 1532 1533 1533 1534 1534 1534 1534 1534 1535 1537 1538 1539 1539 1540 1540 1540 1540 1541 1541 1541 1542 1543
1499 1501 1503 1505 1507 1509 1511 1513 1514 1516 1518 1520 1521 1522 1523 1525 1527 1528 1529 1530 1531 1532 1532 1532 1533 1533 1533 1534 1535 1536 1538 1538 1539 1539 1540 1540 1540 1541 1541 1542 1542 1543
1497 1499 1501 1504 1506 1508 1510 1512 1514 1515 1517 1519 1520 1521 1522 1524 1526 1526 1527 1529 1530 1531 1531 1531 1532 1532 1532 1534 1535 1536 1537 1538 1538 1539 1540 1540 1541 1541 1542 1542 1543 1543
1496 1498 1500 1502 1504 1507 1509 1511 1513 1515 1516 1517 1518 1520 1521 1522 1524 1525 1527 1528 1529 1530 1530 1531 1531 1531 1532 1533 1535 1536 1537 1538 1538 1539 1540 1540 1541 1541 1542 1543 1544 1544
1495 1497 1499 1501 1503 1505 1507 1509 1512 1513 1515 1517 1518 1519 1520 1521 1523 1525 1526 1527 1528 1529 1530 1531 1531 1531 1532 1533 1535 1536 1537 1537 1538 1539 1540 1541 1541 1542 1543 1544 1544 1545
1493 1496 1498 1500 1502 1504 1505 1508 1510 1512 1514 1516 1517 1518 1519 1520 1522 1524 1525 1526 1527 1528 1529 1531 1531 1531 1532 1533 1535 1536 1537 1537 1539 1540 1541 1541 1542 1543 1544 1544 1545 1545
1492 1494 1497 1498 1500 1502 1504 1507 1509 1511 1513 1515 1516 1517 1518 1520 1522 1523 1525 1525 1526 1528 1530 1530 1531 1531 1532 1534 1535 1536 1537 1538 1539 1540 1541 1542 1542 1543 1544 1545 1545 1545
1491 1493 1495 1497 1498 1501 1503 1506 1508 1510 1512 1514 1515 1517 1518 1520 1521 1523 1524 1525 1527 1529 1530 1530 1531 1531 1532 1534 1535 1536 1537 1538 1539 1540 1541 1542 1543 1544 1544 1544 1545 1546
1490 1492 1494 1496 1497 1500 1502 1504 1506 1508 1510 1513 1515 1516 1518 1520 1521 1523 1525 1526 1528 1529 1530 1530 1531 1532 1533 1534 1535 1536 1537 1538 1539 1540 1541 1542 1543 1543 1544 1545 1546 1547
1489 1491 1492 1494 1497 1499 1501 1503 1505 1507 1509 1512 1514 1516 1518 1519 1521 1523 1526 1527 1528 1529 1530 1531 1532 1532 1533 1534 1535 1537 1538 1539 1540 1540 1541 1542 1543 1543 1544 1546 1547 1548
1488 1490 1491 1493 1495 1498 1500 1502 1504 1506 1508 1511 1514 1516 1517 1519 1521 1524 1526 1527 1528 1529 1530 1531 1532 1532 1533 1534 1535 1537 1538 1539 1540 1541 1541 1542 1543 1544 1545 1547 1548 1549
1486 1488 1490 1492 1494 1496 1498 1500 1503 1505 1507 1511 1514 1515 1517 1519 1521 1524 1526 1527 1527 1528 1529 1530 1531 1532 1533 1534 1535 1537 1538 1539 1540 1541 1542 1542 1543 1545 1546 1547 1549 1550
1485 1487 1489 1491 1493 1495 1497 1499 1502 1504 1507 1510 1513 1515 1516 1518 1521 1523 1525 1526 1526 1527 1528 1529 1530 1532 1533 1534 1536 1537 1538 1540 1541 1542 1542 1543 1544 1545 1547 1548 1549 1550
1484 1486 1488 1490 1492 1494 1496 1498 1501 1504 1507 1510 1512 1514 1516 1518 1521 1523 1524 1525 1526 1527 1527 1528 1530 1531 1533 1534 1536 1537 1539 1540 1541 1542 1542 1543 1545 1546 1547 1549 1550 1551
1483 1485 1487 1489 1491 1493 1496 1498 1501 1504 1507 1509 1511 1513 1516 1518 1520 1522 1524 1525 1525 1525 1526 1528 1530 1531 1533 1535 1536 1537 1539 1540 1541 1542 1543 1544 1546 1547 1548 1549 1550 1551
1482 1484 1486 1489 1491 1494 1496 1498 1501 1504 1507 1509 1510 1512 1515 1518 1520 1522 1523 1524 1524 1524 1525 1528 1530 1531 1533 1535 1536 1538 1539 1541 1541 1542 1543 1545 1546 1547 1548 1549 1550 1551
1482 1484 1486 1488 1491 1494 1497 1499 1501 1504 1506 1508 1511 1513 1515 1517 1519 1521 1522 1523 1523 1523 1525 1527 1529 1531 1533 1535 1537 1538 1540 1541 1542 1542 1544 1545 1546 1548 1549 1550 1551 1551
1481 1483 1486 1488 1491 1494 1496 1498 1501 1504 1506 1508 1511 1513 1515 1517 1519 1520 1521 1522 1522 1522 1525 1528 1529 1531 1533 1535 1537 1538 1539 1540 1541 1542 1544 1545 1546 1548 1549 1549 1550 1551
1481 1483 1485 1488 1490 1492 1495 1498 1501 1504 1506 1508 1510 1512 1514 1516 1518 1519 1520 1520 1520 1522 1525 1528 1530 1531 1532 1534 1536 1537 1538 1540 1541 1542 1543 1545 1546 1547 1547 1548 1549 1550
1481 1482 1485 1487 1489 1491 1494 1498 1501 1504 1506 1508 1510 1512 1514 1516 1517 1517 1518 1518 1519 1522 1525 1527 1529 1530 1532 1534 1535 1536 1538 1539 1541 1542 1543 1545 1546 1546 1547 1548 1549 1550
1479 1481 1484 1486 1488 1491 1494 1497 1500 1503 1506 1508 1510 1512 1513 1515 1516 1517 1517 1517 1519 1521 1524 1526 1528 1529 1531 1533 1534 1536 1537 1539 1541 1542 1543 1544 1545 1545 1546 1548 1549 1550
1479 1481 1483 1485 1488 1491 1494 1496 1499 1502 1505 1507 1509 1511 1513 1514 1515 1516 1517 1517 1518 1521 1523 1525 1527 1529 1530 1532 1534 1535 1537 1539 1541 1542 1543 1543 1544 1544 1546 1547 1548 1550